N5MDT Weather Reports


time (UTC)temp
C
wind
direction
speed
KPH
gust
KPH
rain 1hr
cm
rain 24hr
cm
rain mn
cm
humidity
%
barometer
mb
20260502151816 15 40 0.0 6.4 0.00 0.00 0.00 84 1021.8
20260502150815 15 355 3.2 14.5 0.00 0.00 0.00 84 1021.9
20260502122844 11 307 0.0 0.0 0.00 0.00 0.00 89 1020.1
20260502121814 11 307 0.0 0.0 0.00 0.00 0.00 89 1020.0
20260502120845 11 307 0.0 0.0 0.00 0.00 0.00 89 1020.0
20260502115844 11 307 0.0 0.0 0.00 0.00 0.00 89 1019.9
20260502114844 11 307 0.0 0.0 0.00 0.00 0.00 89 1019.7
20260502113844 12 307 0.0 0.0 0.00 0.00 0.00 88 1019.6
20260502112844 12 307 0.0 1.6 0.00 0.00 0.00 88 1019.5
20260502111844 12 307 0.0 3.2 0.00 0.00 0.00 88 1019.4
20260502110844 12 307 0.0 3.2 0.00 0.00 0.00 88 1019.3
20260502105844 12 307 0.0 6.4 0.00 0.00 0.00 88 1019.0
20260502104844 12 316 0.0 8.0 0.00 0.00 0.00 89 1018.9
20260502103844 12 300 8.0 8.0 0.00 0.00 0.00 89 1018.9
20260502102844 12 320 0.0 3.2 0.00 0.00 0.00 89 1019.0
20260502101844 12 320 0.0 4.8 0.00 0.00 0.00 89 1018.8
20260502100844 12 327 0.0 3.2 0.00 0.00 0.00 89 1018.8
20260502090843 12 330 1.6 3.2 0.00 0.00 0.00 88 1017.9
20260502070842 13 67 0.0 0.0 0.00 0.00 0.00 88 1017.5
20260502065842 13 40 0.0 0.0 0.00 0.00 0.00 88 1017.3
20260502064842 13 47 0.0 0.0 0.00 0.00 0.00 88 1017.5
20260502063842 13 24 0.0 0.0 0.00 0.00 0.00 88 1017.5
20260502062842 13 5 0.0 0.0 0.00 0.00 0.00 88 1017.6
20260502061842 13 40 0.0 0.0 0.00 0.00 0.00 88 1017.6
20260502060842 13 47 0.0 1.6 0.00 0.00 0.00 88 1017.7
20260502055841 13 311 0.0 3.2 0.00 0.00 0.00 88 1017.6
20260502054841 13 329 1.6 3.2 0.00 0.00 0.00 88 1017.6
20260502053841 13 34 1.6 6.4 0.00 0.00 0.00 89 1017.3
20260502052841 13 49 3.2 3.2 0.00 0.00 0.00 88 1017.5
20260502051841 13 65 1.6 6.4 0.00 0.00 0.00 88 1017.4
20260502050841 13 56 0.0 4.8 0.00 0.00 0.00 88 1017.5
20260502045841 13 51 3.2 6.4 0.00 0.00 0.00 88 1017.5
20260502044841 13 63 3.2 8.0 0.00 0.00 0.00 89 1017.5
20260502043840 13 345 0.0 3.2 0.00 0.00 0.00 89 1017.4
20260502042826 13 313 6.4 6.4 0.00 0.00 0.00 89 1017.5
20260502041827 13 5 3.2 14.5 0.00 0.00 0.00 89 1017.5
20260502040826 13 5 4.8 8.0 0.00 0.00 0.00 89 1017.5
20260502035827 13 5 1.6 4.8 0.00 0.00 0.00 89 1017.5
20260502034827 13 30 0.0 3.2 0.00 0.00 0.00 90 1017.4
20260502033826 13 36 0.0 3.2 0.00 0.00 0.00 90 1017.5
20260502032827 13 148 0.0 4.8 0.00 0.00 0.00 89 1017.4
20260502031826 13 20 1.6 6.4 0.00 0.00 0.00 89 1017.4
20260502030826 13 304 0.0 6.4 0.00 0.00 0.00 90 1017.2
20260502025826 13 41 1.6 6.4 0.00 0.00 0.00 90 1017.0
20260502024826 13 26 3.2 4.8 0.00 0.00 0.00 90 1016.7
20260502023826 13 355 3.2 4.8 0.00 0.00 0.00 90 1016.3
20260502022826 13 47 1.6 3.2 0.00 0.00 0.00 90 1015.7
20260502021825 13 5 0.0 4.8 0.00 0.00 0.00 90 1015.8
20260502020825 13 36 0.0 0.0 0.00 0.00 0.00 90 1015.8
20260502015825 13 46 0.0 0.0 0.00 0.00 0.00 90 1016.0
20260502014825 13 14 0.0 6.4 0.00 0.00 0.00 90 1015.9
20260502013825 13 30 1.6 4.8 0.00 0.00 0.00 90 1015.6
20260502012825 13 305 0.0 4.8 0.00 0.00 0.00 90 1015.4
20260502011825 13 321 0.0 4.8 0.00 0.00 0.00 90 1015.4
20260502010825 13 107 1.6 6.4 0.00 0.00 0.00 90 1015.3
20260502005825 14 337 1.6 4.8 0.00 0.00 0.00 89 1014.8
20260502004825 14 346 3.2 4.8 0.00 0.00 0.00 89 1014.8
20260502003825 14 46 0.0 4.8 0.00 0.00 0.00 89 1015.2
20260502002825 14 327 4.8 6.4 0.00 0.00 0.00 89 1015.4
20260502001825 14 335 0.0 8.0 0.00 0.00 0.00 89 1014.9
20260502000825 15 319 3.2 4.8 0.00 0.00 0.00 89 1014.6
20260501235824 15 355 1.6 4.8 0.00 0.00 0.00 89 1014.4
20260501234824 15 360 1.6 4.8 0.00 0.00 0.00 89 1014.3
20260501233824 15 17 0.0 4.8 0.00 0.00 0.00 89 1014.3
20260501232824 15 315 0.0 8.0 0.00 0.00 0.00 89 1014.1
20260501231824 15 328 1.6 9.7 0.00 0.00 0.00 90 1012.9
20260501230824 15 30 0.0 3.2 0.00 0.00 0.00 90 1012.2
20260501225824 15 53 1.6 14.5 0.00 0.00 0.00 90 1012.7
20260501224824 15 344 1.6 8.0 0.00 0.00 0.00 90 1013.4
20260501223824 16 355 3.2 8.0 0.00 0.00 0.00 90 1011.6
20260501222824 16 54 4.8 11.3 0.00 0.00 0.00 90 1011.1
20260501221824 16 38 1.6 8.0 0.00 0.00 0.00 90 1011.6
20260501220824 16 42 0.0 9.7 0.00 0.00 0.00 90 1012.2
20260501215823 16 49 1.6 6.4 0.00 0.00 0.00 90 1011.8
20260501214823 16 327 0.0 9.7 0.00 0.00 0.00 89 1013.6
20260501213823 16 76 0.0 6.4 0.00 0.00 0.00 90 1013.2
20260501212823 16 36 0.0 6.4 0.00 0.00 0.00 90 1012.4
20260501211823 16 309 0.0 4.8 0.00 0.00 0.00 90 1013.5
20260501210823 16 13 1.6 6.4 0.00 0.00 0.00 90 1012.4
20260501205823 16 355 1.6 4.8 0.00 0.00 0.00 90 1011.6
20260501204823 16 60 1.6 6.4 0.00 0.00 0.00 90 1011.7
20260501203823 16 342 0.0 4.8 0.00 0.00 0.00 90 1011.7
20260501202823 16 360 0.0 6.4 0.00 0.00 0.00 90 1011.7
20260501201824 16 309 0.0 8.0 0.00 0.00 0.00 90 1012.1
20260501200823 16 329 0.0 3.2 0.00 0.00 0.00 90 1012.3
20260501195822 16 333 0.0 6.4 0.00 0.00 0.00 89 1012.8
20260501194822 16 346 1.6 3.2 0.00 0.00 0.00 89 1012.1
20260501193822 16 342 0.0 3.2 0.00 0.00 0.00 89 1012.5
20260501192822 17 33 3.2 4.8 0.00 0.00 0.00 89 1012.2
20260501191822 17 46 0.0 6.4 0.00 0.00 0.00 90 1012.0
20260501190822 17 47 0.0 4.8 0.00 0.00 0.00 90 1011.2
20260501185822 17 80 1.6 4.8 0.00 0.00 0.00 90 1011.2
20260501184822 17 59 0.0 4.8 0.00 0.00 0.00 90 1010.9
20260501183852 17 46 3.2 9.7 0.00 0.00 0.00 90 1010.6
20260501182822 17 64 4.8 6.4 0.00 0.00 0.00 90 1010.1
20260501181822 17 51 1.6 16.1 0.00 0.00 0.00 90 1009.6
20260501180822 17 101 1.6 6.4 0.00 0.00 0.00 90 1009.4
20260501175822 17 55 3.2 4.8 0.00 0.00 0.00 90 1010.1
20260501174821 17 24 1.6 3.2 0.00 0.00 0.00 91 1011.5
20260501173821 17 346 0.0 0.0 0.00 0.00 0.00 90 1012.4
20260501172821 17 348 0.0 4.8 0.00 0.00 0.00 90 1012.8
20260501171821 17 28 1.6 6.4 0.00 0.00 0.00 90 1012.5
20260501170821 17 9 1.6 4.8 0.00 0.00 0.00 90 1012.7
20260501165821 17 16 0.0 0.0 0.00 0.00 0.00 91 1013.1
20260501164821 17 325 0.0 0.0 0.00 0.00 0.00 91 1013.0
20260501163821 17 40 0.0 0.0 0.00 0.00 0.00 91 1013.4
20260501162821 17 56 0.0 0.0 0.00 0.00 0.00 91 1014.2
20260501161821 17 54 0.0 1.6 0.00 0.00 0.00 90 1015.1
20260501160821 17 58 0.0 1.6 0.00 0.00 0.00 91 1015.2
20260501155821 16 331 0.0 3.2 0.00 0.00 0.00 90 1015.3
20260501154821 16 38 1.6 3.2 0.00 0.00 0.00 91 1015.3
20260501153850 16 221 0.0 6.4 0.00 0.00 0.00 91 1014.7